Theta_e
318 315 313 311 310 309 309 308 308 307 307 307 307 307 307 309 310 311 310 307 304 316 319 319 321 322 323 325 327 328 330 331 335 337 339 339 339 336 334 333 334 333 332
316 313 313 312 310 309 309 308 308 308 307 306 306 306 307 306 307 307 306 306 305 305 310 312 314 316 318 318 318 320 321 323 326 332 334 337 339 339 338 335 333 333 333
315 313 312 312 311 309 309 308 308 308 307 306 306 306 306 306 306 305 305 306 306 306 305 304 304 310 312 314 314 313 313 313 314 319 327 331 328 335 338 338 336 334 333
314 313 312 312 311 310 309 308 307 307 307 307 306 306 306 306 306 305 305 305 305 305 305 305 304 302 306 309 311 312 313 314 315 314 312 311 318 326 330 336 337 337 336
314 314 313 312 311 310 309 308 307 307 307 307 307 307 306 306 306 305 304 304 304 304 304 303 304 303 305 307 308 309 311 313 314 314 315 315 315 314 323 326 331 335 336
313 314 313 312 311 310 309 308 308 307 307 307 307 307 305 305 306 306 305 305 304 305 304 304 303 303 305 308 307 308 309 310 310 312 314 315 315 316 316 318 322 329 331
314 313 313 312 311 311 310 309 308 308 307 307 307 306 306 306 306 306 306 305 305 305 304 304 303 303 303 304 304 305 307 307 308 310 311 313 315 316 316 317 317 321 322
315 313 313 312 311 311 310 309 308 307 307 306 305 304 301 305 306 305 305 306 305 304 304 303 303 303 303 303 303 303 304 305 306 308 309 311 312 314 316 316 317 317 319
315 314 313 312 312 311 310 309 308 307 307 307 306 304 301 302 303 305 304 305 304 304 304 303 304 303 303 303 303 303 303 303 306 307 308 309 310 312 313 314 315 316 317
316 314 313 312 312 311 310 309 309 308 307 307 306 305 304 304 299 301 304 304 304 304 304 303 303 303 302 302 302 303 303 303 305 306 307 308 309 310 311 312 313 314 315
316 315 313 312 312 311 311 310 309 308 307 306 306 304 303 303 302 299 299 302 304 304 303 302 302 301 302 303 303 302 302 303 304 306 306 307 308 309 309 310 311 312 314
317 315 314 312 312 311 311 310 309 308 307 307 306 306 304 303 302 301 298 299 300 303 302 302 301 302 302 301 302 302 303 303 304 305 305 306 306 307 309 309 310 310 313
316 315 314 313 312 312 311 310 309 308 308 306 306 306 305 304 304 303 302 299 299 301 302 301 301 301 301 302 303 303 303 304 305 305 305 305 306 307 306 307 308 308 310
317 316 315 313 312 311 311 310 309 309 308 307 306 305 305 304 304 304 303 301 298 298 300 300 301 300 301 301 302 302 303 303 303 304 304 304 304 305 305 306 307 307 308
316 316 315 313 311 311 310 309 309 308 308 307 305 304 304 304 304 303 303 302 300 297 296 300 300 301 301 302 303 303 303 302 302 304 303 303 304 304 304 305 306 307 308
312 315 313 312 311 310 310 309 308 308 307 306 305 304 304 303 303 303 302 302 301 300 297 300 300 300 301 303 303 302 302 302 302 302 303 304 304 304 305 305 306 306 308
308 314 313 311 309 309 309 308 308 307 306 305 304 304 304 303 303 303 302 301 301 301 298 300 300 301 302 303 302 302 302 302 301 301 303 303 303 303 304 305 306 307 308
307 309 312 310 309 308 308 307 307 306 306 305 304 304 304 303 303 303 302 301 301 300 300 299 301 302 302 302 301 301 301 301 302 301 302 303 303 304 305 305 306 306 308
307 307 309 310 309 308 307 307 306 305 305 305 304 304 303 303 303 302 301 301 300 300 300 301 301 301 301 301 300 300 300 300 300 301 302 304 305 305 306 306 305 305 306
307 308 309 309 309 308 307 306 305 305 304 304 304 303 303 303 302 301 301 300 300 301 301 301 301 301 300 300 300 300 299 300 300 301 302 303 304 304 305 305 306 306 306
305 306 309 308 309 307 306 305 305 304 304 303 304 303 303 302 302 301 300 300 301 302 302 301 301 300 300 299 299 300 299 300 300 301 302 302 302 302 303 304 305 306 308
305 305 306 308 308 307 306 305 304 303 304 303 303 303 303 302 302 302 302 302 303 303 303 301 300 300 300 300 301 300 300 301 301 301 302 303 304 304 304 304 304 305 306
305 303 305 307 308 307 306 305 304 303 303 303 303 302 302 301 301 301 303 304 304 302 302 302 301 301 300 300 300 300 301 302 303 304 305 305 305 305 305 305 305 305 306
304 303 304 306 307 306 306 306 304 303 303 302 302 301 300 300 300 301 301 301 300 300 300 300 302 301 301 300 301 302 303 304 304 304 304 305 305 305 305 305 305 305 306
303 302 302 305 306 305 306 307 304 302 302 302 301 300 300 300 301 301 301 301 300 300 300 301 301 300 301 302 302 302 303 304 304 304 304 305 305 306 306 306 306 305 308
302 301 302 306 305 305 307 308 304 302 301 300 300 300 300 301 302 302 301 300 300 300 300 301 300 300 300 300 301 302 302 303 303 304 304 306 308 307 308 306 307 308 308
Wind_Speed
21 19 14 13 12 11 10 10 8 8 9 9 9 8 8 8 6 5 2 1 2 5 5 4 5 4 1 4 4 5 4 2 1 1 2 5 8 8 7 8 9 9 8
23 20 18 15 15 14 13 10 10 10 9 8 9 9 8 7 7 6 4 3 2 3 4 4 4 5 5 5 2 3 6 6 6 5 4 6 5 4 12 13 11 10 10
24 23 23 20 17 16 15 13 13 12 11 9 7 7 7 8 7 7 6 4 4 3 2 2 2 4 4 4 3 3 3 3 3 7 8 10 10 8 5 9 15 14 13
25 25 26 23 19 18 18 17 17 15 13 12 10 10 9 8 9 9 9 7 6 5 2 1 3 2 2 2 2 3 3 4 4 5 5 10 11 10 6 3 5 16 17
28 28 28 26 23 22 21 21 19 16 15 13 12 10 12 11 10 12 13 10 7 6 3 3 4 4 2 1 1 3 2 3 5 6 6 6 7 6 8 7 11 6 8
33 30 30 29 27 27 25 23 20 18 16 14 12 11 11 13 14 13 15 13 11 9 6 4 3 1 2 1 4 5 3 3 7 6 6 7 8 8 8 8 9 12 14
35 36 33 32 32 33 30 26 22 21 18 13 11 12 15 14 15 14 15 13 11 12 10 5 3 2 2 4 6 7 7 7 7 5 8 8 8 9 9 9 9 11 13
37 38 38 35 35 34 30 28 26 23 19 18 7 3 1 5 17 16 15 14 12 8 12 7 6 7 6 8 7 6 7 8 6 7 9 8 9 9 10 10 10 11 11
40 41 42 40 38 37 35 32 30 28 23 21 19 6 2 4 1 9 15 18 15 11 10 9 7 7 8 8 7 9 10 10 8 11 9 9 10 10 11 11 12 13 14
42 43 44 43 41 40 38 36 33 31 27 22 20 20 8 3 3 1 5 16 15 12 10 9 8 6 7 10 10 9 10 12 12 11 11 13 13 12 12 13 14 15 16
43 44 45 44 43 42 41 38 36 34 32 28 25 15 15 10 7 3 2 3 9 10 7 6 8 9 9 8 8 12 14 14 12 11 13 12 13 13 15 16 16 16 17
43 43 45 46 45 44 44 41 39 36 35 29 28 23 18 8 9 5 2 4 5 8 11 12 11 9 9 13 12 12 14 16 16 14 14 14 15 17 15 16 16 17 18
38 43 44 46 46 46 45 43 41 39 36 34 29 27 25 22 11 15 8 4 4 5 6 9 10 8 9 10 9 9 10 10 11 14 16 18 17 17 19 19 19 19 19
37 43 48 48 49 48 47 45 42 41 37 35 32 26 25 23 20 17 11 8 0 2 5 11 7 11 9 12 14 15 17 17 17 19 20 21 22 23 23 21 21 22 21
34 41 48 50 49 48 48 47 45 42 40 37 33 30 27 24 21 19 16 14 9 3 3 7 6 4 16 16 16 17 19 22 21 20 23 23 24 25 25 25 24 21 22
35 36 46 49 47 50 49 48 45 43 42 39 35 32 28 24 22 19 17 15 15 13 4 9 11 21 19 19 17 21 23 23 24 27 24 24 25 26 24 23 22 23 23
36 30 41 44 43 45 46 46 45 45 44 41 37 34 31 27 25 21 19 18 16 15 9 16 22 22 22 18 23 21 25 25 30 26 25 26 26 25 25 23 23 25 25
37 23 30 38 40 44 45 44 44 41 45 42 39 35 33 28 25 22 20 18 16 16 18 18 23 22 21 19 21 22 29 26 25 29 28 28 29 28 28 29 26 27 26
31 31 24 35 39 41 42 43 45 39 44 43 40 36 33 29 26 24 20 18 17 18 20 18 15 15 20 22 26 25 27 29 29 29 27 27 28 29 29 29 32 31 28
29 31 25 36 41 41 43 41 41 37 40 41 40 37 32 31 27 23 19 17 15 14 11 10 15 20 24 25 26 26 28 28 29 30 30 29 29 30 31 32 33 32 32
29 28 28 37 41 41 42 39 38 39 39 36 38 36 33 29 23 21 19 15 13 13 14 15 19 21 20 20 21 24 24 28 27 27 32 33 32 33 33 30 29 30 33
27 24 24 30 35 37 40 43 41 38 39 38 37 33 30 26 22 18 15 14 14 14 16 18 20 16 21 23 25 24 21 21 15 26 31 32 29 32 32 31 29 28 26
25 28 27 25 33 37 39 40 40 37 40 37 37 34 29 27 22 18 17 15 15 14 13 15 19 23 25 28 26 26 27 28 31 34 28 31 29 30 30 30 30 26 23
27 21 28 29 31 35 38 38 37 39 39 37 36 32 28 21 18 18 18 16 14 15 14 15 20 24 27 29 30 31 33 34 38 37 31 20 27 28 28 31 29 27 23
29 17 27 30 27 34 39 38 36 39 38 35 32 28 25 21 17 15 13 12 12 13 14 15 19 25 26 28 31 32 31 27 20 29 26 22 26 21 21 25 28 23 21
30 17 27 28 25 34 38 39 39 37 36 32 28 24 23 22 17 14 12 12 11 13 15 18 25 26 28 32 29 29 32 27 26 17 25 17 16 12 5 16 19 21 21
Wind_Direction
215 212 206 195 181 176 178 184 177 165 164 171 172 156 165 191 189 193 223 239 178 146 114 98 93 87 114 231 248 267 258 225 236 113 192 221 235 249 240 241 246 252 249
224 214 210 202 196 190 190 191 187 181 185 190 189 194 187 191 223 229 228 208 150 126 119 104 100 95 85 78 70 265 269 263 253 251 256 251 238 244 246 257 258 248 246
227 215 212 213 205 196 194 192 191 197 196 189 206 196 195 198 210 230 227 215 191 175 116 91 86 104 101 81 57 41 26 357 285 256 244 254 261 263 266 263 246 250 248
225 219 217 221 213 203 201 196 198 197 202 207 203 208 217 221 222 215 220 231 229 221 234 359 27 20 97 60 50 31 24 24 8 353 305 264 264 263 275 291 275 247 247
221 223 224 225 217 208 205 201 205 209 204 204 214 218 215 225 226 217 225 241 234 238 255 285 295 336 298 352 24 357 343 3 353 348 345 345 337 302 266 282 272 256 259
222 222 225 225 217 210 209 210 209 207 212 212 213 222 233 233 220 221 230 232 236 236 234 297 294 1 263 273 297 317 304 324 335 338 342 335 327 328 323 308 310 272 278
225 224 222 221 216 216 218 212 207 208 207 200 207 236 244 237 228 233 231 221 225 231 226 247 299 245 241 259 277 285 283 296 310 320 331 331 328 321 313 315 309 287 290
227 225 224 223 221 221 223 214 208 206 209 206 190 179 306 246 233 228 222 223 221 224 220 242 254 236 240 281 281 283 272 285 285 298 311 316 320 319 315 307 308 303 297
227 225 224 225 225 224 225 218 212 212 197 203 207 169 108 224 238 212 221 217 206 206 220 239 229 269 264 261 263 279 276 283 282 288 293 298 306 304 304 301 300 298 296
226 226 224 224 224 225 228 226 219 215 212 200 200 222 219 159 167 322 207 204 207 216 223 224 256 242 266 283 279 275 275 280 280 272 283 296 297 297 298 299 297 292 291
227 225 225 222 222 224 229 230 223 216 216 207 198 191 208 204 207 138 215 217 205 204 217 233 261 276 274 271 269 283 282 284 268 267 279 286 289 291 293 292 290 287 286
231 226 224 223 224 224 226 230 229 223 217 215 210 206 191 177 196 167 155 222 225 248 256 261 269 262 273 287 287 289 290 282 273 266 272 280 283 285 285 286 283 283 285
228 224 221 221 222 226 229 228 227 226 222 217 210 209 213 212 199 201 179 189 214 257 261 256 260 258 280 280 285 298 297 290 274 272 275 281 282 281 285 283 281 279 281
248 231 224 221 222 224 227 226 225 224 223 219 213 209 205 205 207 206 198 168 224 276 249 252 225 267 272 293 298 296 293 289 287 282 280 280 279 279 280 278 280 277 275
270 242 229 218 219 222 226 223 219 220 218 216 212 211 209 210 216 218 217 215 180 190 265 233 234 224 302 299 293 293 293 293 289 285 284 281 279 277 275 276 278 276 276
297 248 225 220 215 220 223 221 214 217 213 212 210 208 207 204 203 205 215 219 221 215 220 221 247 295 300 297 290 295 293 288 286 290 281 281 279 276 272 270 268 278 274
312 263 230 217 210 212 218 215 212 212 210 211 210 209 210 210 210 212 218 221 220 227 228 268 281 291 291 288 297 293 292 291 293 288 283 283 280 274 265 259 262 267 268
309 310 250 216 207 209 213 209 207 206 206 208 209 209 212 212 215 214 212 213 228 243 247 258 277 286 291 300 299 295 298 297 292 288 281 274 272 266 262 264 262 267 259
313 307 312 236 209 205 207 206 207 201 204 207 208 208 208 206 208 208 217 231 240 249 255 258 273 289 296 299 304 299 295 297 295 293 284 274 270 267 263 259 266 269 257
316 300 267 284 221 201 204 202 202 200 203 208 211 209 205 203 208 216 220 230 238 239 246 267 287 294 296 301 296 283 286 287 281 289 284 269 270 268 267 265 264 263 250
316 310 272 299 223 200 198 196 196 197 202 203 210 212 211 212 216 219 216 220 218 245 269 278 281 283 281 283 269 288 281 284 280 278 271 266 265 260 260 264 260 256 248
308 315 293 285 224 200 197 198 193 194 200 202 203 202 204 206 207 203 216 230 246 255 258 259 268 267 276 275 285 286 285 291 287 280 267 264 257 254 248 250 259 254 247
292 309 293 285 226 205 195 194 192 191 197 199 202 202 201 201 205 212 221 234 239 251 260 280 287 289 284 290 298 293 284 278 276 280 276 273 266 256 244 244 245 243 254
284 296 293 279 225 207 192 188 185 191 195 197 197 192 190 195 200 213 214 223 242 259 272 281 288 292 298 301 295 288 286 283 281 275 266 262 267 252 239 234 240 236 237
281 285 287 265 239 204 189 182 178 186 192 192 191 193 194 196 187 191 208 236 257 267 282 288 289 295 301 300 295 297 287 283 276 274 266 249 260 243 221 211 230 230 212
280 278 282 259 248 202 183 178 182 175 177 175 178 185 193 190 193 200 225 241 256 280 298 302 305 311 314 318 308 296 285 271 270 275 261 238 193 168 162 198 207 195 193